Regional Weather Roundup
Issued by NWS Little Rock, AR

Home | Current Version | Previous Version | Text Only | Print | Product List | Glossary Off
Versions: 1 2 3 4 5 6 7 8 9 10 11 12 13 14 15 16 17 18 19 20 21 22 23 24 25 26 27 28 29 30 31 32 33 34 35 36 37 38 39 40 41 42 43 44 45 46 47 48 49 50

558
ASUS44 KLZK 050605
RWRLZK

WEATHER ROUNDUP FOR ARKANSAS
NATIONAL WEATHER SERVICE LITTLE ROCK AR
100 AM CDT THU MAY 05 2016

NOTE: "FAIR" INDICATES FEW OR NO CLOUDS BELOW 12,000 FEET WITH NO
SIGNIFICANT WEATHER AND/OR OBSTRUCTIONS TO VISIBILITY.

ARZ001-003-010-029-050700-
NORTHWEST ARKANSAS

CITY           SKY/WX    TMP DP  RH WIND       PRES   REMARKS
FAYETTEVILLE   PTCLDY    43  42  97 S3        30.02R
6HR MIN TEMP:  43; 6HR MAX TEMP:  68;

FORT SMITH     CLEAR     55  42  61 CALM      30.00R
6HR MIN TEMP:  55; 6HR MAX TEMP:  75;

HARRISON       CLEAR     53  39  59 W3        30.00R
6HR MIN TEMP:  53; 6HR MAX TEMP:  67;

BENTONVILLE    CLEAR    N/A N/A N/A CALM      30.01F
ROGERS         CLEAR     52  40  63 CALM      30.02S
6HR MIN TEMP:  52; 6HR MAX TEMP:  68;

SILOAM SPGS    CLEAR     50  36  57 CALM      30.03R
6HR MIN TEMP:  50; 6HR MAX TEMP:  66;

HIGHFILL       CLEAR     52  40  63 N7        30.01S
6HR MIN TEMP:  52; 6HR MAX TEMP:  70;

$$

ARZ004-005-016-050700-
NORTH CENTRAL ARKANSAS

CITY           SKY/WX    TMP DP  RH WIND       PRES   REMARKS
BATESVILLE     CLEAR     55  39  54 NW5       29.95S
6HR MIN TEMP:  54; 6HR MAX TEMP:  72;

FLIPPIN        CLEAR    N/A N/A N/A NW3       29.95R
MTN HOME       CLEAR     55  38  52 VRB3      29.96S
6HR MIN TEMP:  51; 6HR MAX TEMP:  69;

$$

ARZ040-041-050700-
WEST CENTRAL ARKANSAS

CITY           SKY/WX    TMP DP  RH WIND       PRES   REMARKS
MENA           CLEAR     61  37  41 NW3       30.00S
MOUNT IDA      CLEAR     52  43  71 CALM      29.96R
6HR MIN TEMP:  52; 6HR MAX TEMP:  76;

$$

ARZ009-017-025-026-028-050700-
NORTHEAST ARKANSAS

CITY           SKY/WX    TMP DP  RH WIND       PRES   REMARKS
CORNING          N/A     54  41  62 NW6       29.94S
JONESBORO      CLEAR     58  39  49 N5        29.93R
6HR MIN TEMP:  58; 6HR MAX TEMP:  73; 6HR PCP: TRACE;

NEWPORT        CLEAR     55  44  66 NW7       29.95S
6HR MIN TEMP:  54; 6HR MAX TEMP:  73;

WALNUT RIDGE   CLEAR     54  39  58 N7        29.93R
BLYTHEVILLE    CLEAR     52  46  80 N5        29.92R
6HR MIN TEMP:  52; 6HR MAX TEMP:  70;

$$

ARZ022-023-033-042-044-050700-
CENTRAL ARKANSAS

CITY           SKY/WX    TMP DP  RH WIND       PRES   REMARKS
LITTLE ROCK    CLEAR     61  40  45 NW9       29.95R
6HR MIN TEMP:  61; 6HR MAX TEMP:  77;

JACKSONVILLE   CLEAR     61  41  48 NW6       29.94R
6HR MIN TEMP:  61; 6HR MAX TEMP:  75;

SEARCY         CLEAR     59  41  51 NW5       29.96S
6HR MIN TEMP:  59; 6HR MAX TEMP:  73;

HOT SPRINGS    CLEAR     63  38  39 N7        29.96S
6HR MIN TEMP:  59; 6HR MAX TEMP:  77;

RUSSELLVILLE   CLEAR     50  45  83 CALM      29.97R
6HR MIN TEMP:  50; 6HR MAX TEMP:  76;

CLINTON        FAIR      48  46  93 CALM      29.97S
$$

ARZ036-050700-
EAST ARKANSAS

CITY           SKY/WX    TMP DP  RH WIND       PRES   REMARKS
WEST MEMPHIS   CLEAR     58  47  66 N6        29.91R
6HR MIN TEMP:  58; 6HR MAX TEMP:  72;

$$

ARZ050-053-066-070-073-050700-
SOUTHWEST ARKANSAS

CITY           SKY/WX    TMP DP  RH WIND       PRES   REMARKS
ARKADELPHIA    FAIR      58  54  86 CALM      29.96R
6HR MIN TEMP:  58; 6HR MAX TEMP:  80;

CAMDEN         CLEAR     54  46  76 CALM      29.95R
TEXARKANA      CLEAR     62  42  47 N6        29.97R
6HR MIN TEMP:  61; 6HR MAX TEMP:  78;

EL DORADO      CLEAR     59  49  69 NW5       29.95R
6HR MIN TEMP:  58; 6HR MAX TEMP:  77;

DE QUEEN       CLEAR     50  48  93 CALM      29.97R
6HR MIN TEMP:  49; 6HR MAX TEMP:  79;

$$

ARZ056-057-069-050700-
SOUTHEAST ARKANSAS

CITY           SKY/WX    TMP DP  RH WIND       PRES   REMARKS
PINE BLUFF     CLEAR     60  44  55 NW8       29.93R
6HR MIN TEMP:  59; 6HR MAX TEMP:  77;

STUTTGART      CLEAR     57  43  58 N9        29.94R
6HR MIN TEMP:  57; 6HR MAX TEMP:  73;

MONTICELLO     CLEAR     63  43  48 VRB3      29.92R
6HR MIN TEMP:  60; 6HR MAX TEMP:  78;


$$






USA.gov is the U.S. government's official web portal to all federal, state and local government web resources and services.